2023/09/15 00:00:00, 0.0,22.5
2023/09/15 00:10:00, 0.0,22.4
2023/09/15 00:20:00,46.5,22.5
2023/09/15 00:30:00,14.1,22.5
2023/09/15 00:40:00,14.6,22.2
2023/09/15 00:50:00,14.6,22.1
2023/09/15 01:00:00,14.9,21.8
2023/09/15 01:10:00,15.1,22.2
2023/09/15 01:20:00,15.3,22.2
2023/09/15 01:30:00,15.4,22.0
2023/09/15 01:40:00,15.7,22.0
2023/09/15 01:50:00,16.5,21.8
2023/09/15 02:00:00,16.8,21.8
2023/09/15 02:10:00,17.1,22.0
2023/09/15 02:20:00,17.3,21.8
2023/09/15 02:30:00,17.6,21.8
2023/09/15 02:40:00,17.8,22.0
2023/09/15 02:50:00,18.0,21.8
2023/09/15 03:00:00,18.3,21.9
2023/09/15 03:10:00,18.4,21.8
2023/09/15 03:20:00,18.6,21.8
2023/09/15 03:30:00,18.7,21.8
2023/09/15 03:40:00,18.8,21.8
2023/09/15 03:50:00,18.8,21.7
2023/09/15 04:00:00,18.8,22.0
2023/09/15 04:10:00,18.9,21.7
2023/09/15 04:20:00,18.9,21.7
2023/09/15 04:30:00,19.0,21.8
2023/09/15 04:40:00,19.1,21.7
2023/09/15 04:50:00,19.2,21.8
2023/09/15 05:00:00,19.3,21.6
2023/09/15 05:10:00,19.6,21.8
2023/09/15 05:20:00,19.8,21.7
2023/09/15 05:30:00,20.0,21.4
2023/09/15 05:40:00,20.3,21.6
2023/09/15 05:50:00,20.5,21.7
2023/09/15 06:00:00,20.5,21.5
2023/09/15 06:10:00,20.7,21.7
2023/09/15 06:20:00,20.8,21.8
2023/09/15 06:30:00,20.7,21.8
2023/09/15 06:40:00,20.8,22.0
2023/09/15 06:50:00,20.9,22.2
2023/09/15 07:00:00,21.0,22.5
2023/09/15 07:10:00,21.0,22.6
2023/09/15 07:20:00,20.9,22.9
2023/09/15 07:30:00,21.0,23.0
2023/09/15 07:40:00,20.9,23.6
2023/09/15 07:50:00,20.9,24.1
2023/09/15 08:00:00,21.1,24.2
2023/09/15 08:10:00,21.2,24.5
2023/09/15 08:20:00,21.4,25.0
2023/09/15 08:30:00,21.5,25.0
2023/09/15 08:40:00,21.5,25.3
2023/09/15 08:50:00,21.9,25.3
2023/09/15 09:00:00,22.2,25.1
2023/09/15 09:10:00,22.1,25.3
2023/09/15 09:20:00,22.0,25.0
2023/09/15 09:30:00,22.0,25.1
2023/09/15 09:40:00,22.0,25.9
2023/09/15 09:50:00,21.8,26.1
2023/09/15 10:00:00,21.8,26.3
2023/09/15 10:10:00,21.9,26.5
2023/09/15 10:20:00,21.7,27.1
2023/09/15 10:30:00,21.8,27.8
2023/09/15 10:40:00,21.5,28.9
2023/09/15 10:50:00,21.5,29.0
2023/09/15 11:00:00,21.3,29.9
2023/09/15 11:10:00,21.5,29.8
2023/09/15 11:20:00,21.5,29.9
2023/09/15 11:30:00,21.4,30.4
2023/09/15 11:40:00,21.3,29.6
2023/09/15 11:50:00,21.0,30.5
2023/09/15 12:00:00,21.3,31.2
2023/09/15 12:10:00,21.6,30.9
2023/09/15 12:20:00,21.4,32.0
2023/09/15 12:30:00,21.7,32.4
2023/09/15 12:40:00,21.8,32.6
2023/09/15 12:50:00,21.8,33.3
2023/09/15 13:00:00,20.1,32.6
2023/09/15 13:10:00,21.7,31.4
2023/09/15 13:20:00,22.3,31.3
2023/09/15 13:30:00,22.0,30.3
2023/09/15 13:40:00,18.4,29.5
2023/09/15 13:50:00,13.3,29.1
2023/09/15 14:00:00,12.6,29.6
2023/09/15 14:10:00,16.7,29.4
2023/09/15 14:20:00,17.0,29.1
2023/09/15 14:30:00,18.1,28.9
2023/09/15 14:40:00,21.3,30.4
2023/09/15 14:50:00,21.6,31.5
2023/09/15 15:00:00,20.9,30.5
2023/09/15 15:10:00,20.5,30.2
2023/09/15 15:20:00,21.4,29.9
2023/09/15 15:30:00,21.5,29.4
2023/09/15 15:40:00,21.6,30.6
2023/09/15 15:50:00,21.7,30.0
2023/09/15 16:00:00,21.8,29.6
2023/09/15 16:10:00,21.7,28.9
2023/09/15 16:20:00,21.7,28.4
2023/09/15 16:30:00,21.3,27.8
2023/09/15 16:40:00,21.9,27.8
2023/09/15 16:50:00,20.0,27.4
2023/09/15 17:00:00,11.8,27.6
2023/09/15 17:10:00,17.0,27.1
2023/09/15 17:20:00,19.0,26.8
2023/09/15 17:30:00,22.0,26.8
2023/09/15 17:40:00,22.0,26.6
2023/09/15 17:50:00,21.9,26.5
2023/09/15 18:00:00,21.8,26.1
2023/09/15 18:10:00,21.6,25.8
2023/09/15 18:20:00,21.5,25.5
2023/09/15 18:30:00,21.3,25.2
2023/09/15 18:40:00,21.1,25.0
2023/09/15 18:50:00,20.8,24.9
2023/09/15 19:00:00,20.5,24.7
2023/09/15 19:10:00,20.2,24.6
2023/09/15 19:20:00,19.9,24.4
2023/09/15 19:30:00,19.9,24.3
2023/09/15 19:40:00,19.8,24.3
2023/09/15 19:50:00,19.7,24.2
2023/09/15 20:00:00,19.7,24.0
2023/09/15 20:10:00,19.6,23.8
2023/09/15 20:20:00,19.6,23.6
2023/09/15 20:30:00,19.5,23.6
2023/09/15 20:40:00,19.3,23.7
2023/09/15 20:50:00,19.1,23.4
2023/09/15 21:00:00,19.1,23.5
2023/09/15 21:10:00,19.0,23.3
2023/09/15 21:20:00,18.8,23.5
2023/09/15 21:30:00,18.6,23.2
2023/09/15 21:40:00,18.3,23.3
2023/09/15 21:50:00,18.2,23.2
2023/09/15 22:00:00,18.1,23.1
2023/09/15 22:10:00,18.0,23.0
2023/09/15 22:20:00,18.0,22.7
2023/09/15 22:30:00,18.0,22.9
2023/09/15 22:40:00,17.7,22.6
2023/09/15 22:50:00,17.7,22.7
2023/09/15 23:00:00,17.6,22.9
2023/09/15 23:10:00,17.6,22.6
2023/09/15 23:20:00,17.4,22.5
2023/09/15 23:30:00,17.5,22.6
2023/09/15 23:40:00,17.6,22.5
2023/09/15 23:50:00,17.5,22.7
